Aérodrome :
LOGIN :

S'inscrire | Disclaimer

   EN    FR    IT 

 










Légende :    VFR   VFR Marginal   IFR   IFR Intensif   IFR Très Intensif
Visi : 
Plafond : 
>= 8 km
>= 3000ft
5 à 8 km
1000 à 3000 ft
1500m à 5 km
500 à 1000 ft
800 à 1500m
200 à 500 ft
< 800m
< 200 ft
Symboles :   Orages  Brouillard  Fortes neiges  Fortes précipitations  Vent > 20 kt
SIGMETs :   Divers  Orages  Givrage  Turbulence  Onde Orograph.  Cendres Volcan.







- Altitude de l'aérodrome : 353 ft
- Code IATA : LIN


LIML - Milano Linate

DERNIER METAR :
  • 140750Z 22004KT 9999 BKN035 03/02 Q1009 NOSIG

METARs EXPIRÉS :
  • 140720Z 23004KT 210V270 9999 BKN035 03/02 Q1009 NOSIG
  • 140650Z 21003KT 180V240 8000 BKN040 03/02 Q1009 NOSIG
  • 140620Z VRB02KT 8000 BKN045 03/02 Q1009 NOSIG
  • 140550Z 19002KT 8000 BKN050 03/02 Q1009 NOSIG
  • 140520Z VRB02KT 8000 BKN050 03/02 Q1009 NOSIG

TAF TAF LIML
Valide du 14 à 06h jusqu'au 15 à 06h UTC


140500Z 1406/1506 VRB05KT 6000 SCT050
TEMPO 1406/1408 0600 BCFG BKN010
Pas de NOTAMs connus pour ce terrain.



MET'MAP, la Météo Aéronautique d'un coup d'oeil ! - Copyright ORBIFLY Décembre 2007 - Disclaimer

ORBIFLY MET'MAP TEAM :

Programmation & Développement : Alexandra Zaïnal
Conception & Développement : Baudouin d'Aumeries
Co-Programmation & Développement : Marc-Olivier Méhu
Soutien technique & logistique : Manuel Goepfert

Contact : metmap@orbifly.com




SOURCES & CREDITS :

   NOAA